Weather History for Deadhorse, AK

Change the Weather History Date:

Wednesday, April 24, 2013

  Actual Average Record
Temperature  
Mean Temperature 14 °F -  
Max Temperature 26 °F 14 °F 32 °F (2008)
Min Temperature 0 °F 1 °F -19 °F (1987)
Degree Days  
Heating Degree Days 52    
Moisture  
Dew Point 13 °F    
Average Humidity 86    
Maximum Humidity 93    
Minimum Humidity 79    
Precipitation  
Precipitation 0.00 in - - ()
Sea Level Pressure  
Sea Level Pressure 30.02 in    
Wind  
Wind Speed 26 mph (WNW)    
Max Wind Speed 34 mph    
Max Gust Speed 40 mph    
Visibility 3 miles    
Events Snow    
Averages and records for this station are not official NWS values.
T = Trace of Precipitation, MM = Missing Value Source: NWS Daily Summary

Daily Weather History Graph

Daily Weather History Graph

Search for Another Location

Airport:

Trip Planner

Search our weather history database for the weather conditions in past years. The results will help you decide how hot, cold, wet, or windy it might be!

Date:

Astronomy

Apr. 24, 2013 Rise Set
Actual Time 4:58 AM AKDT 10:49 PM AKDT
Civil Twilight 2:59 AM AKDT 12:58 AM AKDT
Nautical Twilight Sun does not rise Sun does not rise
Astronomical Twilight Sun does not rise Sun does not rise
Moon 9:49 PM AKDT (4/24) 4:53 AM AKDT (4/24)
Length of Visible Light 21h 59m
Length of Day
17h 50m
Waxing Gibbous, 99% of the Moon is Illuminated
Apr 24
Waxing Gibbous
Apr 25
Full
May 2
Last Quarter
May 9
New
May 17
First Quarter

Hourly Weather History & Observations

Time (AKDT) Temp. Windchill Dew Point Humidity Pressure Visibility Wind Dir Wind Speed Gust Speed Precip Events Conditions
12:53 AM 26.1 °F 9.6 °F 24.1 °F 92% 29.89 in 3.0 mi WSW 29.9 mph - N/A Snow Blowing Snow
1:30 AM 26.6 °F 10.0 °F 24.8 °F 93% 29.88 in 2.0 mi West 31.1 mph - N/A Snow Blowing Snow
1:53 AM 26.1 °F 8.6 °F 24.1 °F 92% 29.88 in 1.5 mi West 34.5 mph 40.3 mph N/A Snow Blowing Snow
2:53 AM 26.1 °F 9.1 °F 24.1 °F 92% 29.86 in 1.2 mi West 32.2 mph 38.0 mph N/A Snow Blowing Snow
3:53 AM 25.0 °F 8.4 °F 23.0 °F 92% 29.85 in 1.0 mi West 28.8 mph - N/A Snow Blowing Snow
4:53 AM 24.1 °F 7.1 °F 21.9 °F 91% 29.85 in 1.2 mi West 28.8 mph - 0.00 in Snow Light Snow
5:53 AM 21.9 °F 6.9 °F 19.0 °F 89% 29.88 in 1.0 mi NW 19.6 mph - 0.00 in Snow Light Snow
6:00 AM 21.2 °F 6.0 °F 19.4 °F 93% 29.88 in 0.8 mi WNW 19.6 mph - 0.00 in Snow Light Snow
6:53 AM 19.9 °F 3.2 °F 17.1 °F 89% 29.89 in 0.5 mi WNW 23.0 mph - 0.00 in Snow Light Snow
7:04 AM 19.4 °F 2.8 °F 17.6 °F 93% 29.89 in 1.0 mi WNW 21.9 mph - 0.00 in Snow Light Snow
7:18 AM 19.4 °F 1.1 °F 15.8 °F 86% 29.89 in 0.5 mi WNW 27.6 mph 34.5 mph 0.00 in Snow Light Snow
7:53 AM 18.0 °F 0.9 °F 15.1 °F 88% 29.91 in 0.5 mi WNW 21.9 mph - 0.00 in Snow Light Snow
8:00 AM 17.6 °F 0.1 °F 15.8 °F 93% 29.91 in 1.2 mi WNW 23.0 mph - 0.00 in Snow Light Snow
8:40 AM 17.6 °F -0.3 °F 12.2 °F 79% 29.92 in 2.0 mi WNW 24.2 mph - 0.00 in Snow Light Snow
8:53 AM 17.1 °F 0.1 °F 12.9 °F 84% 29.94 in 2.0 mi WNW 20.7 mph - 0.00 in Snow Light Snow
9:00 AM 17.6 °F -0.3 °F 12.2 °F 79% 29.93 in 3.0 mi WNW 24.2 mph 27.6 mph 0.00 in Snow Light Snow
9:53 AM 16.0 °F -2.5 °F 12.0 °F 84% 29.96 in 3.0 mi WNW 24.2 mph - 0.00 in Snow Blowing Snow
10:53 AM 15.1 °F -3.7 °F 10.9 °F 84% 29.99 in 2.5 mi WNW 24.2 mph 28.8 mph N/A Snow Blowing Snow
11:20 AM 15.8 °F -1.9 °F 10.4 °F 79% 30.00 in 2.0 mi WNW 21.9 mph - N/A Snow Blowing Snow
11:53 AM 14.0 °F -5.1 °F 10.0 °F 84% 30.02 in 2.0 mi WNW 24.2 mph - N/A Snow Blowing Snow
12:53 PM 14.0 °F -5.1 °F 10.0 °F 84% 30.05 in 2.0 mi West 24.2 mph - N/A Snow Blowing Snow
1:53 PM 14.0 °F -5.8 °F 9.0 °F 80% 30.08 in 2.0 mi WNW 26.5 mph - N/A Snow Blowing Snow
2:53 PM 12.9 °F -6.9 °F 9.0 °F 84% 30.11 in 2.0 mi WNW 25.3 mph - N/A Snow Blowing Snow
3:53 PM 12.9 °F -6.5 °F 9.0 °F 84% 30.13 in 4.0 mi WNW 24.2 mph - N/A Snow Blowing Snow
4:53 PM 12.0 °F -7.3 °F 8.1 °F 84% 30.17 in 3.0 mi WNW 23.0 mph - N/A Snow Blowing Snow
5:53 PM 10.9 °F -7.9 °F 7.0 °F 84% 30.18 in 5.0 mi WNW 20.7 mph - N/A Snow Blowing Snow
6:53 PM 10.9 °F -8.3 °F 6.1 °F 81% 30.20 in 3.0 mi WNW 21.9 mph - 0.00 in Snow Light Snow
7:53 PM 9.0 °F -9.5 °F 3.9 °F 80% 30.22 in 10.0 mi WNW 18.4 mph - 0.00 in   Scattered Clouds
8:53 PM 7.0 °F -9.8 °F 1.9 °F 80% 30.25 in 10.0 mi West 13.8 mph - N/A   Scattered Clouds
9:53 PM 3.9 °F -10.4 °F -0.0 °F 84% 30.28 in 10.0 mi West 9.2 mph - N/A   Partly Cloudy
10:53 PM 1.9 °F -14.7 °F -2.0 °F 83% 30.29 in 10.0 mi West 11.5 mph - N/A   Clear
11:53 PM -0.0 °F -18.7 °F -4.0 °F 83% 30.31 in 10.0 mi WSW 13.8 mph - N/A   Clear